Location: Ajisawe
(8.4333°N, 4.3833°E)
Time: 07:37:40
(UTC+00:00)

X-37B - Visible Passes

Search period start: 06 March 2021 00:00
Search period end: 16 March 2021 00:00
Orbit: 383 x 391 km, 45.0° (Epoch: 27 February)

Date Brightness Start Highest point End Pass type
(mag) Time Alt. Az. Time Alt. Az. Time Alt. Az.
06 Mar 2.2 19:12:21 10° WSW 19:15:13 30° NW 19:16:01 26° NNW visible
07 Mar 1.6 05:03:13 10° NNW 05:06:15 44° NE 05:09:16 10° ESE visible
07 Mar 0.6 18:13:42 10° SW 18:16:53 85° SE 18:20:04 10° NE visible
08 Mar 3.4 04:08:17 16° NE 04:08:17 16° NE 04:09:58 10° E visible
08 Mar 3.6 18:53:48 10° WNW 18:55:08 12° NW 18:56:28 10° NNW visible
09 Mar 0.6 04:45:54 52° WSW 04:46:05 53° SW 04:49:09 10° SSE visible
